Hlavní strana
METAR-TAF:

METAR-TAF

Letiště :

Morristown, Tennessee, Spojené státy americké

zeměpisná šířka: 36-10-46N, zeměpisná délka: 083-22-32W, výška: 400 m

Aktuální stav počasí

Zpráva byla vytvořena před 26 minutami, v 19:15 UTC
Severoseverozápadní vítr 9 kt
Teplota 11°C
Vlhkost vzduchu 100%
Tlak 1018 hPa
Viditelnost: 8.0 km
Skoro jasno ve výšce 500 ft
Zataženo ve výšce 1200 ft
kouřmo

METAR: KMOR 181915Z AUTO 34009KT 5SM BR FEW005 OVC012 11/11 A3006 RMK A01

Čas: 13:41 (19:41 UTC)


TAF: chybějící

Stav a předpovědi počasí z více než 4 000 letišť (zprávy METAR a TAF).

Červené a žluté tečky na mapě představují dostupné meteorologické stanice.

Když kurzor umístíte na tečku, zobrazí se název stanice.

Pak kliknutím zobrazíte stav a předpověď počasí.

Chcete-li změnit mapu, kliknutím na zelené tlačítko se znaménkem +mapu přiblížíte, kliknutím na zelené tlačítko se znaménkem – mapu oddálíte a kliknutím na zelené šipky přejdete na sousední mapy.


METAR-TAF: